Regional Weather Roundup
Issued by NWS Kansas City/Pleasant Hill, MO

Home | Current Version | Previous Version | Graphics & Text | Print | Product List | Glossary Off
Versions: 1 2 3 4 5 6 7 8 9 10 11 12 13 14 15 16 17 18 19 20 21 22 23 24 25 26 27

000
ASUS43 KEAX 150910
RWREAX

WEATHER ROUNDUP FOR EASTERN KANSAS AND NORTHWEST MISSOURI
NATIONAL WEATHER SERVICE KANSAS CITY/PLEASANT HILL MO
300 AM CST FRI DEC 15 2017

KSZ040-057-103>105-MOZ028-029-037-043-151000-
...KANSAS CITY METROPOLITAN AREA...

CITY           SKY/WX    TMP DP  RH WIND       PRES   REMARKS
K.C. INTL      CLOUDY    35  30  82 W6        30.12R WCI  30
K.C. DOWNTOWN  CLOUDY    38  30  73 W3        30.13S
LEES SUMMIT    CLOUDY    35  27  72 W7        30.12S WCI  29
OLATHE - IXD   CLOUDY    36  31  82 NW7       30.14S WCI  30
OLATHE - OJC   CLOUDY    35  30  82 NW7       30.13R WCI  29
LAWRENCE       CLOUDY    37  32  82 W7        30.14S WCI  32

$$

MOZ001>008-011>017-020>025-030>033-038>040-044>046-053-054-151000-
...NORTHERN AND CENTRAL MISSOURI...

CITY           SKY/WX    TMP DP  RH WIND       PRES   REMARKS
ST. JOSEPH     CLOUDY    36  31  82 NW10      30.13R WCI  28
MOSBY          CLOUDY    32  27  80 CALM      30.12S
WARRENSBURG    CLOUDY    28  27  93 CALM      30.12S
WHITEMAN AFB   CLOUDY    33  25  73 SW3       30.07S
CLINTON        CLOUDY    27  25  93 CALM      30.13S
SEDALIA        CLOUDY    34  27  75 SW7       30.12S WCI  28
WARSAW         NOT AVBL
CHILLICOTHE      N/A     32  25  75 CALM      30.11S
KIRKSVILLE     CLOUDY    31  28  89 W6        30.07S WCI  25

$$

MOZ041-047>049-056>058-063>065-088>090-097-151000-
...EASTERN AND SOUTHERN MISSOURI...

CITY           SKY/WX    TMP DP  RH WIND       PRES   REMARKS
ST. LOUIS INTL CLOUDY    30  22  72 W6        30.11S WCI  24
SPIRIT OF STL  CLOUDY    30  23  75 W6        30.12R WCI  24
COLUMBIA       CLEAR     29  22  75 SW6       30.11S WCI  23
JEFFERSON CITY PTCLDY    30  23  75 N3        30.14R
ROLLA          CLOUDY    30  23  75 W5        30.11R WCI  25
OSAGE BEACH    CLOUDY    30  25  81 CALM      30.13S
SPRINGFIELD    MOCLDY    31  26  82 SW7       30.11R WCI  24
BRANSON        CLOUDY    32  25  74 CALM      30.14S
JOPLIN         CLOUDY    35  29  78 SW7       30.15R WCI  29
WEST PLAINS    CLEAR     26  20  77 SW3       30.13R

$$

IAZ060-094-KSZ022-034>040-054-083-096-NEZ052-066-093-151000-
...KANSAS...SOUTHEAST NEBRASKA AND IOWA...

CITY           SKY/WX    TMP DP  RH WIND       PRES   REMARKS
TOPEKA         CLOUDY    38  34  85 W8        30.15S WCI  32
MANHATTAN      CLEAR     35  30  82 VRB5      30.19R WCI  31
EMPORIA        CLOUDY    34  31  88 W7        30.16S WCI  28
CHANUTE        CLOUDY    39  31  72 NW10      30.17R WCI  32
WICHITA        PTCLDY    33  30  88 NW9       30.20S WCI  25
OMAHA          CLOUDY    32  23  69 CALM      30.12F
LINCOLN        CLOUDY    33  27  78 W8        30.15S WCI  26
FALLS CITY     CLOUDY    36  27  69 NW10      30.14R WCI  28
LAMONI         CLOUDY    32  25  75 W10       30.07R WCI  24
DES MOINES     CLOUDY    29  23  78 NW9       30.08R WCI  20

$$





USA.gov is the U.S. government's official web portal to all federal, state and local government web resources and services.